FW9690 Weather Reports


time (UTC)temp
F
wind
direction
speed
knots
gust
knots
rain 1hr
in
rain 24hr
in
rain mn
in
humidity
%
barometer
mb
20210723163139 76 198 0.0 0.0 0.00 0.00 0.00 71 995.4
20210723160125 75 192 0.0 0.0 0.00 0.00 0.00 78 995.3
20210723154624 75 189 0.0 0.0 0.00 0.00 0.00 81 995.3
20210723153143 73 163 0.0 0.0 0.00 0.00 0.00 83 995.3
20210723150050 71 195 0.0 0.0 0.00 0.00 0.00 86 995.4
20210723144619 71 171 0.0 0.0 0.00 0.00 0.00 86 995.5
20210723143117 71 169 0.0 0.0 0.00 0.00 0.00 87 995.3
20210723140156 70 155 0.0 0.0 0.00 0.00 0.00 87 995.1
20210723134748 70 144 0.0 0.0 0.00 0.00 0.00 87 995.1
20210723133141 70 110 0.0 0.0 0.00 0.00 0.00 86 995.3
20210723130110 69 89 0.0 0.0 0.00 0.00 0.00 85 995.4
20210723124616 70 98 0.0 0.0 0.00 0.00 0.00 83 994.4
20210723123105 70 291 0.0 0.0 0.00 0.00 0.00 79 994.1
20210723120231 72 270 0.0 0.0 0.00 0.00 0.00 72 993.9
20210723114725 71 69 0.0 0.0 0.00 0.00 0.00 79 994.0
20210723113202 70 96 0.0 0.0 0.00 0.00 0.00 83 993.9
20210723110121 70 163 0.0 0.0 0.00 0.00 0.00 83 994.0
20210723103109 70 190 0.0 0.0 0.00 0.00 0.00 83 994.2
20210723100148 71 130 0.0 0.0 0.00 0.00 0.00 77 995.0
20210723094548 72 99 0.0 0.0 0.00 0.00 0.00 77 995.0
20210723093208 72 144 0.0 0.0 0.00 0.00 0.00 77 994.5
20210723090110 71 143 0.0 0.0 0.00 0.00 0.00 78 993.7
20210723084625 71 161 0.0 0.0 0.00 0.00 0.00 79 993.7
20210723083100 72 159 0.0 0.0 0.00 0.00 0.00 78 993.9
20210723080048 73 159 0.0 0.0 0.00 0.00 0.00 70 994.0
20210723074538 73 152 0.0 0.0 0.00 0.00 0.00 69 994.2
20210723073040 74 157 0.0 0.0 0.00 0.00 0.00 68 994.2
20210723070036 75 163 0.0 0.0 0.00 0.00 0.00 64 994.5
20210723064539 76 169 0.0 0.0 0.00 0.00 0.00 63 994.6
20210723063014 76 156 0.0 0.0 0.00 0.00 0.00 61 994.7
20210723060011 77 173 0.0 0.0 0.00 0.00 0.00 57 994.8
20210723054515 77 165 0.0 0.0 0.00 0.00 0.00 54 994.8
20210723053023 77 164 0.0 0.0 0.00 0.00 0.00 48 994.9
20210723051503 78 164 0.0 0.0 0.00 0.00 0.00 44 994.8
20210723050009 79 144 0.0 0.0 0.00 0.00 0.00 40 994.8
20210723043243 78 140 0.0 0.0 0.00 0.00 0.00 39 994.9
20210723041648 79 130 0.0 0.0 0.00 0.00 0.00 38 995.0
20210723040112 79 133 0.0 0.0 0.00 0.00 0.00 37 994.9
20210723033249 80 128 0.0 0.0 0.00 0.00 0.00 38 994.6
20210723031708 80 123 0.0 0.0 0.00 0.00 0.00 38 994.5
20210723030227 81 121 0.0 0.0 0.00 0.00 0.00 39 994.4
20210723023156 82 125 0.0 0.0 0.00 0.00 0.00 39 994.1
20210723021804 82 120 0.0 0.0 0.00 0.00 0.00 39 994.0
20210723020113 82 123 0.0 0.0 0.00 0.00 0.00 38 994.1
20210723013207 84 125 0.0 0.0 0.00 0.00 0.00 36 993.8
20210723011758 85 135 0.0 0.0 0.00 0.00 0.00 35 993.7
20210723010241 85 130 0.0 0.0 0.00 0.00 0.00 35 993.6
20210723003222 86 126 0.0 0.0 0.00 0.00 0.00 34 993.5
20210723001759 86 135 0.0 0.0 0.00 0.00 0.00 34 993.6
20210723000127 86 127 0.0 0.0 0.00 0.00 0.00 34 993.6
20210722233121 87 134 0.0 0.0 0.00 0.00 0.00 35 993.9
20210722231644 87 161 0.0 0.0 0.00 0.00 0.00 33 994.1
20210722230122 87 177 0.0 0.0 0.00 0.00 0.00 33 994.2
20210722223108 86 192 0.0 0.0 0.00 0.00 0.00 33 994.8
20210722221621 87 192 0.0 0.0 0.00 0.00 0.00 33 994.9
20210722220050 87 191 0.0 0.0 0.00 0.00 0.00 34 995.1
20210722213124 86 173 0.0 0.0 0.00 0.00 0.00 34 995.3
20210722211618 85 158 0.0 0.0 0.00 0.00 0.00 34 995.6
20210722210059 86 161 0.0 0.0 0.00 0.00 0.00 34 995.8
20210722203157 86 202 0.0 0.0 0.00 0.00 0.00 33 996.0
20210722201722 86 150 0.0 0.0 0.00 0.00 0.00 35 996.0
20210722200238 86 192 0.0 0.0 0.00 0.00 0.00 35 996.2
20210722193059 85 167 0.0 0.0 0.00 0.00 0.00 34 996.6
20210722191626 84 192 0.0 0.0 0.00 0.00 0.00 35 996.6
20210722190048 84 161 0.0 0.0 0.00 0.00 0.00 35 996.7
20210722183110 84 171 0.0 0.0 0.00 0.00 0.00 37 997.1
20210722181553 84 194 0.0 0.0 0.00 0.00 0.00 38 997.2
20210722180029 83 163 0.0 0.0 0.00 0.00 0.00 39 997.3
20210722173031 83 151 0.0 0.0 0.00 0.00 0.00 43 997.6
20210722171537 82 178 0.0 0.0 0.00 0.00 0.00 45 997.6
20210722170022 81 146 0.0 0.0 0.00 0.00 0.00 47 997.7